Location: Appeville
(49.3218°N, 1.3427°W)
Time: 11:29:29
(UTC+00:00)

ADEOS Rocket - Pass Details

Date: 08 December 2019
Orbit: 859 x 1307 km, 98.7° (Epoch: 24 January)

Event Time Altitude Azimuth Distance (km) Brightness Sun altitude
Rises 06:18:21 0° 160° (SSE) 4,112 6.9 -13.7°
Reaches altitude 10° 06:21:04 10° 160° (SSE) 3,097 6.2 -13.3°
Maximum altitude 06:28:09 85° 73° (ENE) 1,103 3.3 -12.2°
Drops below altitude 10° 06:34:30 10° 346° (NNW) 2,799 5.1 -11.2°
Sets 06:36:52 0° 346° (NNW) 3,696 5.7 -10.9°
